sat.trackr.live / text

‹ back to catalog

FLOCK 4G-24

NORAD 62637 · 2025-009AE

PAYLOAD ACTIVE UNKNOWN

§ Identity

Operator
Country
US
Launch date
2025-01-14
Launch site
AFWTR
Launch vehicle
Mass (kg)
RCS (m²)

Purposes: earth_obs

External: N2YO · Heavens-Above · Gunter

§ Orbital elements

Epoch: 2026-05-25T02:45:46.382688Z

Period
94.16 min
Inclination
97.4022°
Eccentricity
0.0003302
Mean motion
15.29382975 rev/d
Perigee alt
475.4 km
Apogee alt
479.9 km
Semi-major
6,855.8 km
B*
3.3855e-4
RAAN
227.4897°
Arg perigee
43.4912°
Mean anomaly
316.6588°
Rev number
7,540

§ Raw data

FLOCK 4G-241 62637U 25009AE  26145.11512017  .00009575  00000+0  33855-3 0  99982 62637  97.4022 227.4897 0003302  43.4912 316.6588 15.29382975 75404

JSON: /api/v1/satellites/62637 · /tle

For live sub-satellite position, see the globe view (requires WebGL).

§ Visibility from observer

Set your observer location to see the next 7 days of passes ≥ 10°. The values pass through the URL so the page stays shareable.

No JS? Fill the form by hand. The geolocation button needs JavaScript.